Location: Unspecified
(43.4680°N, 87.1740°E)
Time: 21:29:05
(UTC+00:00)

Cosmos 2058 Rocket - Pass Details

Date: 17 April 2021
Orbit: 611 x 639 km, 82.5° (Epoch: 11 May)

Event Time Altitude Azimuth Distance (km) Brightness Sun altitude
Rises 13:40:02 0° 164° (SSE) 2,869 6.1 -8.2°
Reaches altitude 10° 13:42:24 10° 155° (SSE) 1,966 5.2 -8.6°
Maximum altitude 13:46:19 34° 91° (E) 1,019 3.7 -9.3°
Drops below altitude 10° 13:50:15 10° 27° (NNE) 1,975 5.6 -9.9°
Sets 13:52:37 0° 18° (NNE) 2,885 6.6 -10.3°
